User: anonymous   Login
Location: Mascot Post Office (historical)
(40.2645°N, 99.5462°W)
Time: 04:46:39
(UTC+00:00)
Language:

Meteor 2-2 Rocket - Orbit

View from above orbital plane
View from above orbital plane
View from above satellite
View from above satellite

Ground track
Ground track

The orbit data is extracted from the following two-line orbital elements,

1  9662U 77002B   20273.54548525 -.00000051 +00000-0 -41555-4 0  9993
2  9662 081.2789 006.8016 0051424 323.8763 035.8932 14.00942422234433
Epoch (UTC): 29 September 2020 13:05:29
Eccentricity: 0.0051424
inclination: 81.2789°
perigee height: 853 km
apogee height: 928 km
right ascension of ascending node: 6.8016°
argument of perigee: 323.8763°
revolutions per day: 14.00942422
mean anomaly at epoch: 35.8932°
orbit number at epoch: 23443

The dashed part of the orbit path shows where the satellite is in the earth's shadow,  

DLR